• Join FlightAware (Why Join?)
  • Login
  • US Flag GB Flag 
17:33 EDT


 

Airport Tracker/Info


-or-


 

Live Flight TrackerFlight Track Log ✈ KAP46 ✈ 17-Aug-2013 ✈ KALB - KMSS

Flight Track Log - Related Links

Times and Time Zones

All times are in EDT time to prevent confusion due to time zone crossing. See the KAP46 flight status page for this flight to view local times or setup timezone preferences in your user account.

Time Position Orientation Groundspeed Altitude Reporting Facility
EDT Latitude Longitude Course Direction KTS MPH feet Rate Location/Type
19:24 43.5025 -74.1575 341° North 149 171 6,500  Level Boston Center
19:25 43.5439 -74.1758 342° North 149 171 6,500  Level Boston Center
19:26 43.5872 -74.1972 340° North 149 171 6,500  Level Boston Center
19:27 43.6286 -74.2186 339° North 149 171 6,500  Level Boston Center
19:28 43.6700 -74.2369 342° North 154 177 6,500  Level Boston Center
19:29 43.6570 -74.2252 341° North  Level Estimated
19:29 43.7136 -74.2583 340° North 154 177 6,500  Level Boston Center
19:30 43.7589 -74.2797 341° North 154 177 6,500  Level Boston Center
19:31 43.7983 -74.2983 341° North 154 177 6,500  Level Boston Center
19:32 43.8439 -74.3169 344° North 159 183 6,500  Level Boston Center
19:33 43.8894 -74.3386 341° North 165 190 6,500  Level Boston Center
19:34 43.9328 -74.3572 343° North 165 190 6,500  Level Boston Center
19:35 43.9761 -74.3789 340° North 165 190 6,500  Level Boston Center
19:36 44.0194 -74.4006 340° North 165 190 6,500  Level Boston Center
19:37 44.0653 -74.4164 346° North 165 190 6,500  Level Boston Center
19:38 44.1086 -74.4322 345° North 165 190 6,500  Level Boston Center
19:39 44.1519 -74.4511 343° North 165 190 6,500  Level Boston Center
19:40 44.1975 -74.4728 341° North 165 190 6,500  Level Boston Center
19:41 44.2408 -74.4917 343° North 165 190 6,500  Level Boston Center
19:42 44.2844 -74.5136 340° North 165 190 6,500  Level Boston Center
19:43 44.3256 -74.5353 339° North 165 190 6,500  Level Boston Center
19:44 44.3814 -74.5606 342° North 165 190 6,500 -60 Level Boston Center
19:45 44.4269 -74.5797 343° North 165 190 6,400 -240 Descending Boston Center
19:46 44.4725 -74.5986 344° North 165 190 6,000 -420 Descending Boston Center
19:47 44.5281 -74.6242 342° North 171 197 5,500 -480 Descending Boston Center
19:48 44.5778 -74.6433 345° North 171 197 5,100 -480 Descending Boston Center
19:49 44.6275 -74.6656 342° North 176 203 4,600 -540 Descending Boston Center
19:51 44.6690 -74.6898 337° Northwest  Level FlightAware Approximate
19:58 44.9333 -74.8333 341° North  Level FlightAware Approximate
19:59 44.9362 -74.8451 341° North  Level Estimated
20:00 44.9362 -74.8451 341° North  Level Estimated
20:01 44.9362 -74.8451 341° North  Level Estimated
20:02 44.9362 -74.8451 341° North  Level Estimated
20:03 44.9362 -74.8451 341° North  Level Estimated
20:04 44.9362 -74.8451 341° North  Level Estimated
20:05 44.9362 -74.8451 341° North  Level Estimated
20:06 44.9362 -74.8451 341° North  Level Estimated
20:07 44.9362 -74.8451 341° North  Level Estimated
20:08 44.9362 -74.8451 341° North  Level Estimated
20:09 44.9362 -74.8451 341° North  Level Estimated
20:10 44.9362 -74.8451 341° North  Level Estimated
20:11 44.9362 -74.8451 341° North  Level Estimated
20:12 44.9362 -74.8451 341° North  Level Estimated
20:13 44.9362 -74.8451 341° North  Level Estimated
20:14 44.9362 -74.8451 341° North  Level Estimated
20:15 44.9362 -74.8451 341° North  Level Estimated
20:16 44.9362 -74.8451 341° North  Level Estimated